GW4712 Weather Reports


time (UTC)temp
F
wind
direction
speed
knots
gust
knots
rain 1hr
in
rain 24hr
in
rain mn
in
humidity
%
barometer
mb
20260507023234 54 265 0.0 0.0 0.00 0.66 0.66 98 1014.0
20260507022731 54 265 0.0 0.0 0.00 0.66 0.66 98 1014.0
20260507022227 54 265 0.0 0.0 0.00 0.66 0.66 98 1013.7
20260507021724 54 265 0.0 0.0 0.00 0.66 0.66 98 1013.7
20260507021219 54 249 0.0 0.0 0.00 0.66 0.66 98 1013.6
20260507020718 54 249 0.0 0.0 0.00 0.66 0.66 98 1013.1
20260507020213 54 249 0.0 0.0 0.00 0.66 0.66 98 1013.1
20260507015712 54 249 0.0 0.0 0.00 0.66 0.66 98 1013.4
20260507015209 54 249 0.0 0.0 0.00 0.66 0.66 98 1013.6
20260507014705 54 249 0.0 0.0 0.00 0.66 0.66 98 1013.7
20260507014201 55 249 0.0 0.0 0.00 0.66 0.66 98 1013.2
20260507013658 55 249 0.0 0.0 0.00 0.66 0.66 97 1013.5
20260507013156 55 249 0.0 0.0 0.00 0.66 0.66 97 1013.7
20260507012653 55 248 0.0 0.0 0.00 0.66 0.66 97 1013.2
20260507012148 55 248 0.0 0.0 0.00 0.66 0.66 97 1012.8
20260507011647 55 249 0.0 0.0 0.00 0.66 0.66 97 1013.1
20260507011142 55 249 0.0 0.0 0.00 0.66 0.66 97 1013.0
20260507010637 55 249 0.0 0.0 0.00 0.66 0.66 96 1012.6
20260507010133 55 249 0.0 0.0 0.00 0.66 0.66 96 1012.8
20260507005631 55 249 0.0 0.0 0.00 0.66 0.66 96 1013.1
20260507005127 55 249 0.0 0.0 0.00 0.66 0.66 96 1013.2
20260507004624 55 248 0.0 0.0 0.00 0.66 0.66 96 1013.1
20260507004122 55 248 0.0 0.0 0.00 0.66 0.66 95 1012.8
20260507003618 55 248 0.0 0.0 0.00 0.66 0.66 96 1012.8
20260507003113 55 248 0.0 0.0 0.00 0.66 0.66 96 1012.9
20260507002609 55 248 0.0 0.0 0.00 0.66 0.66 96 1012.7
20260507002105 55 248 0.0 0.0 0.00 0.66 0.66 96 1012.8
20260507001602 55 174 0.0 0.0 0.00 0.66 0.66 96 1012.4
20260507001100 55 174 0.0 0.0 0.00 0.66 0.66 96 1012.6
20260507000556 55 174 0.0 0.0 0.00 0.66 0.66 96 1012.6
20260507000051 55 174 0.0 0.0 0.00 0.66 0.66 96 1012.6
20260506235549 55 174 0.0 0.0 0.00 0.66 0.66 96 1012.4
20260506235044 55 174 0.0 0.0 0.00 0.66 0.66 96 1012.2
20260506234542 56 174 0.0 0.0 0.00 0.66 0.66 96 1012.3
20260506234039 56 175 0.0 0.0 0.00 0.66 0.66 94 1012.6
20260506233536 56 175 0.0 0.0 0.00 0.66 0.66 93 1013.0
20260506233033 56 169 0.0 0.0 0.00 0.66 0.66 93 1013.1
20260506232529 56 168 0.0 0.0 0.00 0.66 0.66 93 1012.6
20260506232024 56 168 0.0 0.0 0.00 0.66 0.66 94 1012.5
20260506231522 56 169 0.0 0.0 0.00 0.66 0.66 93 1012.9
20260506231020 56 168 0.0 0.0 0.00 0.66 0.66 93 1012.7
20260506230516 56 168 0.0 0.0 0.00 0.66 0.66 93 1012.7
20260506230014 56 168 0.0 0.0 0.00 0.66 0.66 92 1012.7
20260506225511 56 168 0.0 0.0 0.00 0.66 0.66 92 1012.7
20260506225007 56 168 0.0 0.0 0.00 0.66 0.66 92 1012.6
20260506224503 56 168 0.0 0.0 0.00 0.66 0.66 90 1012.8
20260506224000 56 169 0.0 0.0 0.00 0.66 0.66 90 1012.9
20260506223456 56 92 0.0 0.0 0.00 0.66 0.66 90 1012.8
20260506222953 56 184 0.9 1.7 0.00 0.66 0.66 89 1012.6
20260506222450 57 306 0.0 0.0 0.00 0.66 0.66 90 1012.5
20260506221946 57 307 0.0 0.0 0.00 0.66 0.66 88 1012.3
20260506221443 57 306 0.0 0.0 0.00 0.66 0.66 89 1012.5
20260506220941 57 307 0.9 0.9 0.00 0.66 0.66 88 1012.4
20260506220437 57 307 0.0 0.9 0.00 0.66 0.66 87 1012.2
20260506215933 57 307 0.0 0.0 0.00 0.66 0.66 88 1012.1
20260506215430 56 306 0.0 0.0 0.00 0.66 0.66 87 1012.2
20260506214925 56 306 0.0 0.0 0.00 0.66 0.66 87 1012.3
20260506214423 56 306 0.9 0.9 0.00 0.66 0.66 88 1012.2
20260506213920 56 306 0.0 0.0 0.00 0.66 0.66 88 1012.4
20260506213418 56 307 0.0 0.0 0.00 0.66 0.66 87 1012.3
20260506212915 56 307 0.0 0.0 0.00 0.66 0.66 87 1012.3
20260506212411 56 307 0.0 0.0 0.00 0.66 0.66 87 1012.0
20260506211906 56 307 0.0 0.0 0.00 0.66 0.66 87 1012.3
20260506211402 56 307 0.0 0.9 0.00 0.66 0.66 86 1012.1
20260506210859 56 307 0.0 0.9 0.00 0.66 0.66 87 1012.1
20260506210356 56 307 0.0 0.9 0.00 0.66 0.66 88 1012.1
20260506205853 56 307 0.0 0.0 0.00 0.66 0.66 89 1012.1
20260506205349 56 307 0.0 0.0 0.00 0.66 0.66 88 1012.1
20260506204846 56 313 2.6 2.6 0.00 0.66 0.66 89 1011.9
20260506204344 56 290 0.9 1.7 0.00 0.66 0.66 89 1012.1
20260506203841 56 306 0.0 0.9 0.00 0.66 0.66 88 1011.7
20260506203338 56 307 0.9 0.9 0.00 0.66 0.66 88 1011.9
20260506202835 56 286 0.0 0.9 0.00 0.66 0.66 88 1011.7
20260506202332 57 257 1.7 1.7 0.00 0.66 0.66 88 1011.7
20260506201828 56 298 0.9 1.7 0.00 0.66 0.66 89 1011.9
20260506201326 56 288 1.7 1.7 0.00 0.66 0.66 90 1011.6
20260506200822 56 253 0.9 2.6 0.00 0.66 0.66 91 1011.7
20260506200318 56 322 1.7 1.7 0.00 0.66 0.66 91 1011.6
20260506195815 56 285 0.9 2.6 0.00 0.66 0.66 92 1011.7
20260506195312 55 313 2.6 3.5 0.00 0.66 0.66 91 1011.7
20260506194809 56 308 1.7 2.6 0.00 0.66 0.66 91 1011.6
20260506194305 56 287 2.6 3.5 0.00 0.66 0.66 91 1011.8
20260506193803 56 323 1.7 3.5 0.00 0.66 0.66 91 1011.6
20260506193300 56 311 3.5 6.1 0.00 0.66 0.66 91 1011.6
20260506192756 55 304 1.7 3.5 0.00 0.66 0.66 92 1011.4
20260506192253 55 308 1.7 5.2 0.00 0.66 0.66 91 1011.6
20260506191750 55 312 0.9 3.5 0.00 0.66 0.66 92 1011.5
20260506191246 55 307 2.6 3.5 0.00 0.66 0.66 92 1011.5
20260506190743 55 311 4.3 5.2 0.00 0.66 0.66 92 1011.5
20260506190240 56 309 3.5 6.1 0.00 0.66 0.66 92 1011.4
20260506185737 56 277 2.6 5.2 0.00 0.66 0.66 91 1011.4
20260506185233 56 309 1.7 3.5 0.00 0.66 0.66 93 1011.7
20260506184731 56 316 3.5 5.2 0.00 0.66 0.66 93 1011.8
20260506184228 55 318 4.3 6.1 0.00 0.66 0.66 94 1011.7
20260506183725 55 313 3.5 7.0 0.00 0.66 0.66 93 1011.6
20260506183220 55 312 2.6 2.6 0.00 0.66 0.66 92 1011.3
20260506182718 55 312 5.2 7.8 0.00 0.66 0.66 93 1011.3
20260506182214 55 309 3.5 6.1 0.00 0.66 0.66 93 1011.2
20260506181712 55 314 3.5 5.2 0.00 0.66 0.66 93 1011.3
20260506181204 56 297 5.2 8.7 0.00 0.66 0.66 93 1011.4
20260506180702 56 312 5.2 7.0 0.00 0.66 0.66 93 1011.4
20260506180157 56 307 4.3 7.0 0.00 0.66 0.66 93 1011.2
20260506175654 56 309 3.5 5.2 0.00 0.66 0.66 94 1011.2
20260506175150 56 311 5.2 6.1 0.00 0.66 0.66 94 1011.4
20260506174648 56 307 3.5 7.0 0.00 0.66 0.66 94 1011.2
20260506174145 56 311 7.0 7.0 0.00 0.66 0.66 94 1011.3
20260506173643 56 277 5.2 7.0 0.00 0.66 0.66 95 1011.1
20260506173140 56 313 6.1 8.7 0.00 0.66 0.66 95 1010.8
20260506172637 56 307 3.5 5.2 0.00 0.66 0.66 96 1011.1
20260506172133 56 312 5.2 7.0 0.00 0.66 0.66 95 1011.1
20260506171630 56 311 3.5 7.8 0.00 0.66 0.66 96 1011.4
20260506171128 56 318 0.9 2.6 0.00 0.66 0.66 96 1011.1
20260506170626 56 317 6.1 7.0 0.00 0.66 0.66 96 1011.2
20260506170122 56 320 2.6 7.0 0.00 0.66 0.66 95 1011.3
20260506165621 56 317 4.3 5.2 0.00 0.66 0.66 96 1011.2
20260506165116 56 314 6.1 7.8 0.00 0.66 0.66 96 1011.1
20260506164614 56 316 2.6 6.1 0.00 0.66 0.66 96 1010.9
20260506164112 56 281 2.6 7.0 0.00 0.66 0.66 97 1011.2
20260506163607 56 309 5.2 7.0 0.00 0.66 0.66 97 1011.3
20260506163103 56 311 4.3 5.2 0.00 0.66 0.66 97 1011.2
20260506162559 56 307 5.2 7.0 0.00 0.66 0.66 97 1010.8
20260506162051 56 302 4.3 6.1 0.00 0.66 0.66 97 1011.1
20260506161549 56 309 5.2 8.7 0.00 0.66 0.66 96 1010.8
20260506161045 56 309 5.2 6.1 0.00 0.66 0.66 97 1011.1
20260506160543 56 307 4.3 7.0 0.00 0.66 0.66 96 1010.7
20260506160039 57 283 5.2 9.6 0.00 0.66 0.66 96 1010.7
20260506155538 57 325 5.2 7.0 0.00 0.66 0.66 96 1010.5
20260506153715 59 314 5.2 9.6 0.07 0.66 0.66 98 1009.8
20260506153212 60 315 4.3 5.2 0.07 0.66 0.66 98 1009.7
20260506152709 60 311 1.7 1.7 0.00 0.65 0.65 98 1009.6
20260506152206 60 298 0.0 0.9 0.00 0.65 0.65 98 1009.4
20260506151706 60 294 0.9 1.7 0.00 0.65 0.65 98 1009.4
20260506151201 60 299 0.9 0.9 0.05 0.65 0.65 98 1009.5
20260506150658 60 303 0.0 1.7 0.05 0.65 0.65 98 1009.6
20260506150155 60 297 0.9 1.7 0.00 0.64 0.64 98 1009.2
20260506145652 60 291 0.0 1.7 0.00 0.64 0.64 98 1009.3
20260506145149 60 277 0.9 1.7 0.00 0.64 0.64 97 1009.1
20260506144647 60 315 1.7 2.6 0.00 0.64 0.64 97 1009.3
20260506144143 60 219 0.0 1.7 0.00 0.64 0.64 97 1009.2
20260506143641 60 308 4.3 6.1 0.00 0.64 0.64 97 1009.3
20260506143139 60 311 0.0 3.5 0.00 0.64 0.64 97 1009.0
20260506142637 60 160 1.7 3.5 0.00 0.64 0.64 97 1008.8
20260506142135 60 243 1.7 7.0 0.00 0.64 0.64 97 1008.8
20260506141632 59 258 2.6 8.7 0.00 0.64 0.64 96 1008.8
20260506141130 60 253 0.9 6.1 0.00 0.64 0.64 96 1008.8
20260506140627 60 309 2.6 6.1 0.00 0.64 0.64 96 1008.6
20260506140124 60 252 2.6 5.2 0.00 0.64 0.64 96 1008.3
20260506135621 60 244 3.5 3.5 0.00 0.64 0.64 97 1008.2
20260506135118 60 235 0.9 1.7 0.00 0.64 0.64 97 1008.2
20260506134614 59 213 1.7 5.2 0.00 0.64 0.64 97 1008.0
20260506134110 59 281 1.7 2.6 0.00 0.64 0.64 97 1008.1
20260506133608 59 318 2.6 6.1 0.00 0.64 0.64 96 1008.4
20260506133104 60 257 2.6 3.5 0.00 0.64 0.64 96 1008.5
20260506132602 60 251 2.6 3.5 0.00 0.64 0.64 95 1008.3
20260506132058 60 180 0.9 7.8 0.00 0.64 0.64 95 1008.4
20260506131556 59 240 0.9 1.7 0.00 0.64 0.64 96 1008.3
20260506131052 59 265 0.9 2.6 0.00 0.64 0.64 96 1008.5
20260506130549 59 253 1.7 5.2 0.00 0.64 0.64 96 1008.5
20260506130047 59 293 0.9 1.7 0.00 0.64 0.64 97 1008.4
20260506125545 59 278 0.9 2.6 0.00 0.64 0.64 97 1008.3
20260506125042 58 259 2.6 2.6 0.00 0.64 0.64 98 1008.2
20260506124540 58 190 0.9 1.7 0.00 0.64 0.64 98 1008.1
20260506124037 58 245 0.0 0.9 0.00 0.64 0.64 98 1008.1
20260506123535 58 312 1.7 2.6 0.00 0.64 0.64 98 1008.0
20260506123034 58 325 0.9 0.9 0.00 0.64 0.64 99 1008.0
20260506122530 58 52 0.9 0.9 0.00 0.64 0.64 99 1007.9
20260506122028 58 212 0.0 1.7 0.00 0.64 0.64 99 1007.9
20260506121525 58 127 0.9 1.7 0.00 0.64 0.64 99 1007.8
20260506121021 57 146 0.0 0.0 0.07 0.64 0.64 99 1008.1
20260506120520 57 47 0.0 2.6 0.07 0.64 0.64 99 1008.0
20260506120016 57 260 0.0 3.5 0.00 0.63 0.63 99 1008.1
20260506115514 57 108 0.9 1.7 0.00 0.63 0.63 99 1007.9
20260506115012 57 74 0.0 0.0 0.07 0.63 0.63 99 1007.9
20260506114509 57 74 0.0 0.0 0.07 0.63 0.63 99 1008.2
20260506114008 57 74 0.0 0.0 0.00 0.62 0.62 99 1008.1
20260506113505 57 29 0.0 0.0 0.00 0.62 0.62 99 1008.0
20260506113002 57 26 0.0 0.0 0.05 0.62 0.62 99 1008.0
20260506112459 57 23 0.0 0.0 0.12 0.62 0.62 99 1007.8
20260506111956 57 23 0.0 0.0 0.07 0.61 0.61 99 1007.8
20260506111454 57 23 0.0 0.0 0.05 0.60 0.60 99 1007.9
20260506110951 57 23 0.0 0.0 0.05 0.60 0.60 99 1008.0
20260506110449 57 23 0.0 0.0 0.07 0.59 0.59 99 1007.7
20260506105945 57 23 0.0 0.0 0.12 0.59 0.59 99 1007.9
20260506105441 57 23 0.0 0.0 0.05 0.58 0.58 99 1007.8
20260506104939 57 22 0.0 0.0 0.07 0.57 0.57 99 1007.8
20260506104437 57 23 0.0 0.0 0.19 0.57 0.57 99 1007.6
20260506103935 57 22 0.0 0.0 0.17 0.56 0.56 99 1007.7
20260506103432 57 22 0.0 0.0 0.17 0.54 0.54 99 1007.6
20260506102929 57 28 0.0 0.0 0.12 0.53 0.53 99 1007.5
20260506102427 57 27 0.0 0.0 0.07 0.51 0.51 99 1007.6
20260506101924 57 27 0.0 0.0 0.14 0.51 0.51 99 1007.5
20260506101419 57 27 0.0 0.9 0.12 0.49 0.49 99 1007.5
20260506100917 57 27 1.7 1.7 0.12 0.49 0.49 99 1007.7
20260506100416 57 27 0.0 0.9 0.05 0.47 0.47 99 1007.4
20260506095913 57 26 0.0 0.9 0.17 0.47 0.47 99 1007.6
20260506095411 57 79 0.9 0.9 0.24 0.46 0.46 99 1007.5
20260506094907 57 33 0.0 1.7 0.19 0.44 0.44 99 1007.6
20260506094406 57 41 0.0 0.0 0.07 0.42 0.42 99 1007.7
20260506093903 57 50 0.0 0.9 0.05 0.41 0.41 99 1007.7
20260506093401 57 59 0.9 0.9 0.05 0.41 0.41 99 1007.4
20260506092858 57 67 0.0 0.9 0.07 0.40 0.40 99 1007.7
20260506092356 57 113 0.0 0.0 0.12 0.40 0.40 99 1007.8
20260506091852 57 97 0.0 0.0 0.12 0.39 0.39 99 1008.1
20260506091351 57 218 0.0 0.0 0.19 0.38 0.38 99 1008.3
20260506090848 57 252 0.0 0.0 0.24 0.37 0.37 99 1008.3
20260506090345 57 252 0.0 0.0 0.31 0.35 0.35 99 1008.4
20260506085837 57 252 0.0 0.0 0.35 0.33 0.33 99 1008.3
20260506085333 57 252 0.0 0.9 0.24 0.30 0.30 99 1008.2
20260506084830 57 263 0.0 0.0 0.31 0.27 0.27 99 1008.5
20260506084327 57 246 0.0 0.9 0.71 0.26 0.26 99 1008.5
20260506083823 57 256 0.0 0.0 0.90 0.22 0.22 99 1008.5
20260506083321 57 301 0.0 0.0 0.59 0.13 0.13 99 1008.7
20260506082818 57 298 0.9 1.7 0.17 0.06 0.06 99 1008.9
20260506082314 57 319 3.5 3.5 0.00 0.03 0.03 99 1008.6
20260506081811 57 325 0.0 0.0 0.07 0.03 0.03 99 1008.2
20260506081309 57 325 0.0 0.0 0.07 0.03 0.03 99 1007.9
20260506080806 57 325 0.0 0.0 0.00 0.02 0.02 98 1008.0
20260506080302 57 325 0.0 0.0 0.00 0.02 0.02 98 1007.8
20260506073246 57 325 0.0 0.0 0.00 0.01 0.01 98 1007.6
20260506072743 57 325 0.0 0.0 0.07 0.01 0.01 98 1007.6
20260506072241 57 325 0.0 1.7 0.00 0.00 0.00 98 1007.9
20260506071738 57 325 0.0 0.0 0.00 0.00 0.00 98 1007.8
20260506071236 57 325 0.0 0.0 0.00 0.00 0.00 98 1007.9
20260506070733 57 325 0.0 0.9 0.00 0.00 0.00 98 1007.9
20260506070230 57 325 0.0 0.0 0.00 0.00 0.00 98 1007.8
20260506062207 57 325 0.0 0.0 0.00 0.00 0.00 97 1007.9
20260506061702 57 325 0.0 0.0 0.00 0.00 0.00 97 1007.8
20260506061159 57 325 0.0 0.0 0.00 0.00 0.00 97 1008.0
20260506060659 57 325 0.0 0.0 0.00 0.00 0.00 97 1008.1
20260506060155 58 325 0.0 0.0 0.00 0.00 0.00 97 1008.3
20260506051126 58 325 0.0 0.0 0.00 0.00 0.00 95 1008.7
20260506050625 58 325 0.0 0.0 0.00 0.00 0.00 94 1008.8
20260506050122 58 325 0.0 0.0 0.00 0.00 0.00 94 1009.1
20260506045115 58 325 0.0 0.0 0.00 0.00 0.00 92 1009.0
20260506044613 58 325 0.0 0.0 0.00 0.00 0.00 92 1008.8
20260506044109 58 325 0.0 0.0 0.00 0.00 0.00 92 1009.0
20260506043607 58 325 0.0 0.0 0.00 0.00 0.00 91 1009.4
20260506043105 58 325 0.0 0.0 0.00 0.00 0.00 91 1009.0
20260506042604 59 325 0.0 0.0 0.00 0.00 0.00 90 1009.2
20260506042101 59 325 0.0 0.0 0.00 0.00 0.00 89 1009.1
20260506041600 59 325 0.0 0.0 0.00 0.00 0.00 88 1009.4
20260506041056 59 325 0.0 0.0 0.00 0.00 0.00 87 1009.4
20260506040554 60 325 0.0 0.0 0.00 0.00 0.00 86 1009.5
20260506040050 60 325 0.0 0.0 0.00 0.00 0.00 85 1009.6
20260506035548 60 325 0.0 0.0 0.00 0.00 0.00 85 1009.5
20260506035044 60 325 0.0 0.0 0.00 0.00 0.00 84 1009.6
20260506034541 60 325 0.0 0.9 0.00 0.00 0.00 82 1009.2
20260506034038 60 325 0.0 0.0 0.00 0.00 0.00 82 1009.1
20260506033535 61 325 0.0 0.0 0.00 0.00 0.00 82 1009.1
20260506033032 61 325 0.0 0.0 0.00 0.00 0.00 80 1008.7
20260506032530 60 324 0.0 0.0 0.00 0.00 0.00 81 1009.2
20260506032026 61 325 0.0 0.0 0.00 0.00 0.00 82 1008.9
20260506031524 61 325 0.0 0.0 0.00 0.00 0.00 81 1009.1
20260506031021 60 324 0.0 0.9 0.00 0.00 0.00 83 1009.2
20260506030519 61 324 0.9 0.9 0.00 0.00 0.00 84 1009.5
20260506030016 61 324 0.9 0.9 0.00 0.00 0.00 79 1009.2
20260506025513 61 325 0.0 0.0 0.00 0.00 0.00 78 1009.1
20260506025009 62 325 0.0 0.0 0.00 0.00 0.00 79 1009.1
20260506024507 62 325 0.0 0.0 0.00 0.00 0.00 80 1009.0
20260506024002 62 325 0.0 0.9 0.00 0.00 0.00 78 1009.1
20260506023459 62 314 0.0 1.7 0.00 0.00 0.00 76 1009.0